EN

Hourly Weather Benguela

Today, 25 January, Monday

Time Temperature Precipitation Wind Pressure Humidity
00:00 +25°C° 0 mm 1 mps 758 mmHg 84%
01:00 +26°C° 0 mm 1 mps 758 mmHg 82%
02:00 +26°C° 0 mm 1 mps 758 mmHg 82%
03:00 +25°C° 0 mm 1 mps 758 mmHg 83%
04:00 +25°C° 0 mm 1 mps 757 mmHg 83%
05:00 +26°C° 0 mm 1 mps 758 mmHg 81%
06:00 +26°C° 0 mm 1 mps 758 mmHg 78%
07:00 +27°C° 0 mm 1 mps 758 mmHg 75%
08:00 +28°C° 0 mm 1 mps 758 mmHg 66%
09:00 +30°C° 0 mm 2 mps 758 mmHg 58%
10:00 +32°C° 0 mm 2 mps 758 mmHg 49%
11:00 +34°C° 0 mm 3 mps 757 mmHg 47%
12:00 +35°C° 0 mm 4 mps 757 mmHg 45%
13:00 +35°C° 0 mm 4 mps 756 mmHg 44%
14:00 +35°C° 0 mm 4 mps 756 mmHg 44%
15:00 +35°C° 0 mm 4 mps 755 mmHg 45%
16:00 +34°C° 0 mm 4 mps 754 mmHg 46%
17:00 +33°C° 0 mm 4 mps 755 mmHg 54%
18:00 +30°C° 0 mm 3 mps 756 mmHg 62%
19:00 +28°C° 0 mm 3 mps 756 mmHg 70%
20:00 +27°C° 0 mm 2 mps 757 mmHg 75%
21:00 +27°C° 0 mm 2 mps 758 mmHg 79%
22:00 +26°C° 0 mm 2 mps 758 mmHg 84%
23:00 +25°C° 0 mm 2 mps 758 mmHg 84%

Tomorrow, 26 January, Tuesday

Time Temperature Precipitation Wind Pressure Humidity
00:00 +25°C° 0 mm 2 mps 758 mmHg 85%
01:00 +25°C° 0 mm 1 mps 758 mmHg 86%
02:00 +25°C° 0 mm 1 mps 758 mmHg 82%
03:00 +26°C° 0 mm 1 mps 758 mmHg 78%
04:00 +26°C° 0 mm 1 mps 758 mmHg 74%
05:00 +26°C° 0 mm 1 mps 758 mmHg 72%
06:00 +27°C° 0 mm 1 mps 758 mmHg 70%
07:00 +27°C° 0 mm 1 mps 758 mmHg 68%
08:00 +29°C° 0 mm 1 mps 758 mmHg 62%
09:00 +30°C° 0 mm 2 mps 758 mmHg 56%
10:00 +33°C° 0 mm 3 mps 758 mmHg 50%
11:00 +33°C° 0 mm 3 mps 758 mmHg 49%
12:00 +34°C° 0 mm 4 mps 757 mmHg 48%
13:00 +35°C° 0 mm 4 mps 757 mmHg 47%
14:00 +35°C° 0 mm 4 mps 756 mmHg 47%
15:00 +35°C° 0 mm 4 mps 756 mmHg 46%
16:00 +35°C° 0 mm 4 mps 755 mmHg 45%
17:00 +33°C° 0 mm 3 mps 756 mmHg 53%
18:00 +30°C° 0 mm 3 mps 756 mmHg 62%
19:00 +28°C° 0 mm 3 mps 757 mmHg 70%
20:00 +27°C° 0 mm 3 mps 757 mmHg 75%
21:00 +27°C° 0 mm 2 mps 758 mmHg 79%
22:00 +26°C° 0 mm 2 mps 759 mmHg 84%
23:00 +25°C° 0 mm 2 mps 758 mmHg 85%

Day after tomorrow, 27 January, Wednesday

Time Temperature Precipitation Wind Pressure Humidity
00:00 +25°C° 0 mm 2 mps 758 mmHg 86%
01:00 +25°C° 0 mm 2 mps 758 mmHg 87%
02:00 +25°C° 0 mm 2 mps 758 mmHg 87%
03:00 +24°C° 0 mm 2 mps 758 mmHg 87%
04:00 +24°C° 0 mm 1 mps 758 mmHg 86%
05:00 +25°C° 0 mm 1 mps 758 mmHg 81%
06:00 +26°C° 0 mm 1 mps 758 mmHg 75%
07:00 +26°C° 0 mm 1 mps 758 mmHg 69%
08:00 +29°C° 0 mm 1 mps 758 mmHg 58%
09:00 +32°C° 0 mm 1 mps 758 mmHg 47%
10:00 +34°C° 0 mm 1 mps 758 mmHg 36%
11:00 +36°C° 0 mm 3 mps 757 mmHg 36%
12:00 +37°C° 0 mm 4 mps 757 mmHg 37%
13:00 +37°C° 0 mm 5 mps 756 mmHg 37%
14:00 +37°C° 0 mm 5 mps 755 mmHg 39%
15:00 +36°C° 0 mm 5 mps 755 mmHg 41%
16:00 +35°C° 0 mm 5 mps 754 mmHg 43%
17:00 +33°C° 0 mm 5 mps 755 mmHg 53%
18:00 +30°C° 0 mm 4 mps 755 mmHg 64%
19:00 +27°C° 0 mm 4 mps 756 mmHg 75%
20:00 +27°C° 0 mm 3 mps 757 mmHg 79%
21:00 +26°C° 0 mm 2 mps 758 mmHg 83%
22:00 +25°C° 0 mm 2 mps 758 mmHg 86%
23:00 +25°C° 0 mm 2 mps 758 mmHg 87%

28 January, Thursday

Time Temperature Precipitation Wind Pressure Humidity
00:00 +25°C° 0 mm 2 mps 758 mmHg 88%
01:00 +25°C° 0 mm 1 mps 758 mmHg 89%
02:00 +24°C° 0 mm 1 mps 758 mmHg 89%
03:00 +24°C° 0 mm 1 mps 758 mmHg 89%
04:00 +24°C° 0 mm 1 mps 757 mmHg 90%
05:00 +24°C° 0 mm 1 mps 758 mmHg 85%
06:00 +25°C° 0 mm 1 mps 758 mmHg 79%
07:00 +26°C° 0 mm 1 mps 758 mmHg 74%
08:00 +28°C° 0 mm 1 mps 758 mmHg 63%
09:00 +31°C° 0 mm 2 mps 758 mmHg 51%
10:00 +34°C° 0 mm 2 mps 758 mmHg 40%
11:00 +35°C° 0 mm 3 mps 758 mmHg 42%
12:00 +35°C° 0 mm 4 mps 757 mmHg 45%
13:00 +35°C° 0 mm 5 mps 756 mmHg 48%
14:00 +34°C° 0 mm 5 mps 756 mmHg 49%
15:00 +34°C° 0 mm 5 mps 756 mmHg 50%
16:00 +33°C° 0 mm 5 mps 755 mmHg 52%
17:00 +30°C° 0 mm 4 mps 756 mmHg 59%
18:00 +29°C° 0 mm 4 mps 757 mmHg 67%
19:00 +27°C° 0 mm 4 mps 757 mmHg 74%
20:00 +26°C° 0 mm 3 mps 758 mmHg 78%
21:00 +26°C° 0 mm 2 mps 759 mmHg 81%
22:00 +25°C° 0 mm 2 mps 759 mmHg 85%
23:00 +25°C° 0 mm 2 mps 759 mmHg 85%

29 January, Friday

Time Temperature Precipitation Wind Pressure Humidity
00:00 +24°C° 0 mm 2 mps 759 mmHg 86%
01:00 +24°C° 0 mm 2 mps 759 mmHg 86%
02:00 +24°C° 0 mm 2 mps 759 mmHg 86%
03:00 +24°C° 0 mm 2 mps 758 mmHg 87%
04:00 +23°C° 0 mm 2 mps 758 mmHg 87%
05:00 +24°C° 0 mm 2 mps 758 mmHg 83%
06:00 +25°C° 0 mm 1 mps 759 mmHg 79%
07:00 +25°C° 0 mm 1 mps 759 mmHg 75%
08:00 +28°C° 0 mm 2 mps 759 mmHg 65%
09:00 +30°C° 0 mm 2 mps 759 mmHg 55%
10:00 +33°C° 0 mm 3 mps 759 mmHg 46%
11:00 +34°C° 0 mm 3 mps 758 mmHg 44%
12:00 +35°C° 0 mm 4 mps 758 mmHg 42%
13:00 +36°C° 0 mm 5 mps 757 mmHg 40%
14:00 +36°C° 0 mm 5 mps 756 mmHg 40%
15:00 +36°C° 0 mm 5 mps 756 mmHg 40%
16:00 +35°C° 0 mm 6 mps 755 mmHg 41%
17:00 +33°C° 0 mm 5 mps 756 mmHg 51%
18:00 +29°C° 0 mm 4 mps 756 mmHg 62%
19:00 +27°C° 0 mm 4 mps 757 mmHg 72%
20:00 +26°C° 0 mm 3 mps 757 mmHg 77%
21:00 +25°C° 0 mm 2 mps 758 mmHg 81%
22:00 +24°C° 0 mm 2 mps 758 mmHg 86%
23:00 +24°C° 0 mm 2 mps 758 mmHg 86%

30 January, Saturday

Time Temperature Precipitation Wind Pressure Humidity
00:00 +24°C° 0 mm 2 mps 758 mmHg 86%
01:00 +24°C° 0 mm 2 mps 758 mmHg 87%
02:00 +23°C° 0 mm 1 mps 758 mmHg 87%
03:00 +23°C° 0 mm 1 mps 758 mmHg 87%
04:00 +23°C° 0 mm 1 mps 758 mmHg 87%
05:00 +24°C° 0 mm 1 mps 758 mmHg 81%
06:00 +24°C° 0 mm 1 mps 758 mmHg 76%
07:00 +25°C° 0 mm 1 mps 758 mmHg 70%
08:00 +28°C° 0 mm 1 mps 758 mmHg 61%
09:00 +30°C° 0 mm 2 mps 758 mmHg 52%
10:00 +34°C° 0 mm 2 mps 758 mmHg 42%
11:00 +35°C° 0 mm 3 mps 757 mmHg 41%
12:00 +35°C° 0 mm 4 mps 757 mmHg 41%
13:00 +36°C° 0 mm 5 mps 756 mmHg 40%
14:00 +36°C° 0 mm 5 mps 755 mmHg 41%
15:00 +35°C° 0 mm 5 mps 755 mmHg 42%
16:00 +35°C° 0 mm 5 mps 754 mmHg 42%
17:00 +32°C° 0 mm 5 mps 755 mmHg 53%
18:00 +29°C° 0 mm 4 mps 755 mmHg 63%
19:00 +27°C° 0 mm 4 mps 756 mmHg 73%
20:00 +26°C° 0 mm 3 mps 756 mmHg 78%
21:00 +25°C° 0 mm 2 mps 757 mmHg 83%
22:00 +24°C° 0 mm 2 mps 758 mmHg 88%
23:00 +24°C° 0 mm 1 mps 758 mmHg 89%
Show more